Weather History for Kelsey Dam CS, MB

Change the Weather History Date:

Wednesday, February 6, 2013

  Actual Average Record
Temperature  
Mean Temperature -28 °F -  
Max Temperature -11 °F - - ()
Min Temperature -46 °F - - ()
Degree Days  
Heating Degree Days 94    
Moisture  
Dew Point -40 °F    
Average Humidity 64    
Maximum Humidity 74    
Minimum Humidity 44    
Precipitation  
Precipitation 0.00 in - - ()
Sea Level Pressure  
Sea Level Pressure 30.32 in    
Wind  
Wind Speed 1 mph ()    
Max Wind Speed 5 mph    
Max Gust Speed -    
T = Trace of Precipitation, MM = Missing Value Source: Averaged Metar Reports

Daily Weather History Graph

Daily Weather History Graph

Search for Another Location

Airport:

Trip Planner

Search our weather history database for the weather conditions in past years. The results will help you decide how hot, cold, wet, or windy it might be!

Date:

Astronomy

Feb. 06, 2013 Rise Set
Actual Time 8:10 AM CST 5:10 PM CST
Civil Twilight 7:30 AM CST 5:51 PM CST
Nautical Twilight 6:45 AM CST 6:35 PM CST
Astronomical Twilight 6:02 AM CST 7:18 PM CST
Moon 5:18 AM CST (2/6) 1:07 PM CST (2/6)
Length of Visible Light 10h 20m
Length of Day
9h 00m
Waning Crescent, 17% of the Moon is Illuminated
Feb 6
Waning Crescent
Feb 10
New
Feb 17
First Quarter
Feb 25
Full
Mar 4
Last Quarter

Hourly Weather History & Observations

Time (CST) Temp. Windchill Dew Point Humidity Pressure Visibility Wind Dir Wind Speed Gust Speed Precip Events Conditions
12:00 AM -42 °F - -50 °F 44% 30.18 in - Calm Calm - -  
12:00 AM -42.2 °F - -49.9 °F 65% 30.18 in - Calm Calm - N/A   Unknown
1:00 AM -43.1 °F - -50.8 °F 65% 30.19 in - WSW 1.2 mph - N/A   Unknown
2:00 AM -42.7 °F - -50.4 °F 65% 30.21 in - West 1.2 mph - N/A   Unknown
3:00 AM -44.5 °F - -52.4 °F 64% 30.23 in - ESE 1.2 mph - N/A   Unknown
4:00 AM -44.5 °F - -52.6 °F 63% 30.24 in - Calm Calm - N/A   Unknown
5:00 AM -45.6 °F - -53.7 °F 63% 30.26 in - WSW 1.2 mph - N/A   Unknown
6:00 AM -46 °F - -54 °F 44% 30.28 in - SW 1.2 mph - -  
6:00 AM -45.6 °F - -53.7 °F 63% 30.28 in - SW 1.2 mph - N/A   Unknown
7:00 AM -45.9 °F - -54.0 °F 63% 30.29 in - Calm Calm - N/A   Unknown
8:00 AM -45.6 °F - -53.7 °F 63% 30.30 in - WSW 1.2 mph - N/A   Unknown
9:00 AM -43.8 °F - -51.7 °F 64% 30.32 in - WSW 1.2 mph - N/A   Unknown
10:00 AM -33.2 °F - -40.0 °F 69% 30.32 in - WSW 1.2 mph - N/A   Unknown
11:00 AM -27.6 °F - -33.9 °F 72% 30.33 in - SW 2.3 mph - N/A   Unknown
12:00 PM -21 °F - -28 °F 57% 30.34 in - West 2.3 mph - -  
12:00 PM -21.3 °F - -27.6 °F 73% 30.34 in - West 2.3 mph - N/A   Unknown
1:00 PM -17.9 °F - -24.3 °F 72% 30.33 in - WSW 1.2 mph - N/A   Unknown
2:00 PM -16.6 °F -26.8 °F -24.5 °F 67% 30.34 in - WSW 3.5 mph - N/A   Unknown
3:00 PM -15.0 °F -27.4 °F -24.9 °F 61% 30.35 in - SW 4.6 mph - N/A   Unknown
4:00 PM -12.1 °F - -23.8 °F 56% 30.36 in - West 1.2 mph - N/A   Unknown
5:00 PM -17.5 °F -27.8 °F -26.9 °F 62% 30.38 in - SW 3.5 mph - N/A   Unknown
6:00 PM -21 °F - -28 °F 56% 30.40 in - WSW 1.2 mph - -  
6:00 PM -21.5 °F - -27.8 °F 73% 30.40 in - WSW 1.2 mph - N/A   Unknown
7:00 PM -24.5 °F - -30.5 °F 74% 30.40 in - WSW 2.3 mph - N/A   Unknown
8:00 PM -31.2 °F - -37.8 °F 70% 30.41 in - Calm Calm - N/A   Unknown
9:00 PM -33.3 °F - -40.2 °F 69% 30.41 in - Calm Calm - N/A   Unknown
10:00 PM -35.0 °F - -41.4 °F 70% 30.42 in - SW 1.2 mph - N/A   Unknown
11:00 PM -37.7 °F - -45.2 °F 66% 30.43 in - SW 2.3 mph - N/A   Unknown